Retour au catalogue

GEESAT 4-10

ActifScienceLEO
NORAD 65128·PAYLOAD·🇨🇳 China

Lancé Aug 8, 2025 depuis Yellow Sea Launch Area

Loading…

Prochains Passages (prochaines 24 heures)

TLE

FraisSource: Space-Track

Époque: Sep 14, 2026, 14:48 UTC

1 65128U 25170K   26257.61679975  .00001085  00000-0  16160-3 0  9990
2 65128  49.9780  73.6458 0024536 273.5215  86.2917 14.82404273 60328

Suivez GEESAT 4-10 en temps réel avec AllMySat

Download on the App Store